Terminal Aerodrome Forecast
Issued by NWS

Home | Current Version | Previous Version | Graphics & Text | Print | Product List | Glossary Off
Versions: 1 2 3 4 5 6 7 8 9 10 11 12 13 14 15 16 17 18 19 20 21 22 23 24 25 26 27 28 29 30 31 32 33 34 35 36 37 38 39

000
FTUS43 KDDC 210831 AAA
TAFHYS
TAF AMD
KHYS 210831Z 2109/2206 19008KT 1/4SM FG VV001
     FM211500 19012KT 5SM BR OVC008
     FM211800 19012KT P6SM BKN012=

USA.gov is the U.S. government's official web portal to all federal, state and local government web resources and services.